Temp
10 10 10 10 10 10 11 12 12 12 10 10 9 9 14 14 13 13 11 10 9 10 9 9 9 9 9 8 8 8 7 7 7 7 6 6 7 7 6 6 6 6 6 6 6 6 7 7 7
10 10 10 10 9 10 11 13 13 13 12 9 9 10 13 13 13 13 12 10 9 10 9 9 9 9 8 8 8 7 7 7 7 6 6 6 7 6 6 7 6 6 6 6 6 6 7 6 6
10 9 10 9 10 10 11 14 12 12 13 11 10 11 13 12 13 12 10 10 10 10 9 9 9 8 8 7 8 7 7 7 7 6 6 6 6 6 7 6 6 6 5 6 7 7 6 6 6
9 9 9 9 10 12 12 12 12 13 13 12 10 12 12 10 12 12 11 10 10 10 9 9 8 8 8 7 7 7 7 7 7 6 6 6 6 6 6 6 6 6 6 6 7 7 6 6 6
8 8 8 9 10 11 12 13 12 13 13 12 11 11 11 10 11 11 11 10 10 10 10 9 8 8 8 7 7 7 7 7 6 7 6 6 6 6 6 7 6 6 6 6 6 6 6 6 5
7 8 8 8 10 12 13 14 13 14 13 10 11 12 11 10 10 11 11 10 10 10 10 9 8 8 8 7 7 7 7 7 7 7 7 6 6 6 7 7 7 6 6 6 6 6 5 5 4
8 8 8 9 10 11 13 13 13 14 13 11 12 12 12 11 9 11 11 10 10 10 9 9 9 8 8 7 7 7 7 7 7 8 7 7 7 7 7 7 7 6 6 6 6 6 6 5 4
8 7 7 8 9 10 13 13 13 14 14 13 12 11 12 11 10 11 11 10 10 10 9 9 8 8 8 7 7 7 7 7 7 8 8 7 7 7 7 7 7 7 6 6 6 6 5 4 3
7 6 7 8 9 11 13 12 14 13 13 11 11 10 10 11 10 11 11 10 10 10 9 9 9 8 8 7 7 7 8 8 8 8 8 7 8 7 7 7 7 6 6 6 6 6 5 4 4
7 6 7 8 9 11 12 12 12 13 13 11 12 12 9 11 11 11 11 10 10 10 9 9 9 8 8 7 7 7 7 8 8 7 7 7 7 7 7 7 7 6 6 6 6 6 6 5 6
7 7 7 8 9 10 12 12 12 13 12 11 12 11 10 10 12 11 11 10 10 10 9 9 9 8 8 8 8 7 7 7 7 7 7 7 7 7 6 6 6 6 6 6 6 6 6 5 5
7 7 7 8 9 10 10 11 11 12 13 12 11 11 11 11 11 11 12 11 10 10 9 9 9 8 8 8 7 8 7 7 7 7 7 7 6 6 6 6 6 6 6 6 7 6 5 5 4
6 7 8 8 9 10 10 11 11 11 12 12 11 11 11 11 11 11 11 10 10 10 9 9 9 8 8 8 7 7 7 7 7 7 7 7 6 6 6 6 6 5 6 6 6 6 6 6 5
7 7 8 8 9 9 10 10 11 11 12 11 11 10 10 10 11 10 11 10 11 10 9 9 9 8 8 8 8 7 7 7 7 7 7 7 7 6 6 5 6 6 4 4 4 5 4 4 4
7 7 8 8 9 10 10 10 11 11 12 11 11 11 10 10 9 10 11 12 10 10 9 9 9 8 8 8 8 7 7 7 7 7 7 7 7 6 6 6 4 4 4 4 4 4 4 4 4
6 7 8 9 9 10 10 10 10 11 11 11 11 11 11 10 9 9 11 11 11 9 10 9 9 8 8 9 9 8 8 7 7 7 7 7 7 7 6 3 5 5 4 5 5 5 5 4 5
6 7 8 8 9 9 10 10 10 11 11 11 11 11 11 10 9 8 8 11 12 10 10 10 9 9 9 9 9 8 9 8 8 7 7 7 7 6 4 5 5 6 6 5 5 5 5 4 4
5 6 7 8 9 9 9 10 10 10 11 11 10 11 11 10 10 9 7 9 10 11 10 10 9 9 9 8 8 8 8 8 8 7 7 7 6 5 5 6 5 6 5 4 5 5 5 4 5
6 6 7 8 8 9 9 10 10 10 11 11 11 10 10 11 10 9 8 9 8 11 10 10 10 9 9 9 9 9 8 8 8 8 7 7 7 6 6 6 5 5 5 5 5 5 4 5 5
5 6 7 8 9 9 10 10 10 10 10 11 11 10 11 11 10 10 9 7 9 11 11 10 11 10 10 9 9 9 8 8 8 8 7 7 6 6 6 5 5 5 5 5 5 5 5 5 5
5 5 6 7 8 10 10 11 11 11 11 11 11 11 11 11 11 10 10 8 8 11 11 11 11 11 11 9 9 8 7 7 7 7 7 7 6 6 6 6 6 6 5 5 5 5 5 5 5
5 6 6 7 8 8 9 9 11 11 11 11 11 11 11 11 11 11 11 10 8 10 11 11 11 11 11 10 9 10 9 9 9 8 8 7 6 6 6 6 5 5 5 5 5 5 5 5 6
5 6 6 7 7 8 8 10 11 11 11 11 11 11 11 10 10 10 11 10 10 9 10 11 10 10 10 9 9 9 9 8 8 8 7 6 6 6 6 6 5 5 5 5 5 5 6 6 5
5 5 6 7 8 6 8 10 10 11 11 11 11 11 11 10 11 11 11 10 10 9 9 9 9 9 9 10 9 9 9 8 8 7 7 7 6 6 6 6 5 5 5 5 5 5 5 6 6
5 5 5 5 5 6 8 9 10 10 11 10 11 11 11 10 11 10 10 9 8 7 8 9 9 9 8 8 9 9 9 9 8 8 8 7 7 7 6 6 6 5 5 5 5 5 5 6 6
5 6 5 3 3 6 9 8 9 10 10 10 11 11 11 10 10 10 9 9 8 8 9 9 9 8 8 7 8 7 7 8 8 8 8 6 6 6 6 6 6 5 5 5 5 5 5 6 6
5 6 7 6 7 6 8 9 9 9 10 10 11 11 11 11 9 9 9 9 7 6 7 9 6 7 7 7 7 7 7 7 7 7 7 6 5 5 5 5 6 6 5 5 5 5 5 5 5
3 5 6 6 4 4 6 8 8 9 9 9 10 10 10 10 9 8 7 8 6 6 6 5 6 6 7 7 7 7 7 6 6 6 6 5 5 4 4 5 5 5 5 5 5 6 5 4 4
-1 -3 1 3 5 4 3 6 7 9 9 9 9 8 9 9 8 8 7 8 6 6 6 7 5 6 6 7 6 6 7 5 4 5 5 5 4 4 4 4 4 3 6 5 5 5 5 5 4
-3 -5 -6 -4 1 3 6 5 6 6 6 8 9 8 7 8 7 7 8 8 7 7 6 5 4 5 5 6 5 5 5 5 4 4 5 5 4 4 4 4 4 4 5 5 4 5 4 3 3
Height
3134 3134 3133 3134 3137 3129 3126 3130 3133 3130 3134 3131 3129 3129 3126 3125 3126 3129 3127 3128 3130 3131 3132 3133 3134 3135 3135 3137 3137 3136 3138 3139 3142 3144 3148 3151 3153 3157 3161 3163 3166 3167 3168 3170 3172 3174 3176 3179 3181
3131 3131 3131 3130 3129 3125 3124 3128 3126 3127 3128 3130 3132 3131 3124 3124 3124 3123 3126 3128 3130 3131 3132 3133 3134 3134 3136 3137 3138 3138 3140 3141 3145 3146 3149 3152 3155 3158 3161 3164 3166 3169 3170 3172 3175 3177 3179 3181 3182
3128 3127 3128 3126 3123 3119 3120 3125 3126 3126 3123 3133 3128 3129 3124 3124 3122 3122 3127 3127 3128 3130 3131 3132 3134 3134 3136 3137 3139 3139 3141 3142 3148 3149 3150 3153 3156 3158 3162 3164 3166 3168 3170 3174 3177 3179 3181 3182 3183
3123 3124 3124 3120 3117 3115 3120 3122 3124 3122 3119 3123 3127 3125 3126 3124 3123 3123 3127 3126 3128 3129 3130 3132 3134 3135 3136 3138 3140 3140 3143 3144 3148 3151 3151 3154 3157 3159 3163 3166 3168 3169 3172 3175 3178 3180 3182 3184 3185
3116 3119 3118 3114 3113 3113 3118 3122 3121 3119 3118 3121 3125 3121 3122 3121 3122 3122 3123 3127 3127 3129 3129 3132 3134 3135 3137 3139 3141 3142 3144 3146 3148 3151 3154 3155 3158 3162 3164 3167 3169 3171 3174 3176 3179 3182 3184 3185 3186
3112 3114 3112 3109 3110 3112 3114 3115 3121 3119 3111 3115 3121 3116 3119 3121 3119 3120 3121 3128 3127 3129 3129 3131 3134 3135 3138 3140 3142 3143 3146 3148 3151 3153 3155 3157 3160 3163 3165 3168 3170 3173 3176 3178 3181 3183 3185 3187 3189
3107 3108 3106 3108 3108 3108 3109 3114 3118 3118 3110 3112 3117 3117 3115 3117 3117 3118 3118 3124 3126 3127 3128 3131 3134 3135 3138 3141 3143 3144 3147 3150 3153 3154 3157 3160 3163 3165 3167 3169 3172 3175 3177 3179 3182 3184 3187 3190 3189
3104 3106 3103 3103 3105 3103 3105 3113 3117 3116 3113 3103 3103 3118 3116 3115 3113 3116 3117 3122 3124 3126 3127 3131 3133 3135 3139 3142 3144 3145 3148 3150 3154 3156 3159 3161 3163 3167 3170 3172 3174 3176 3179 3181 3184 3187 3189 3191 3189
3103 3100 3095 3096 3100 3099 3101 3111 3112 3115 3112 3105 3108 3110 3122 3119 3112 3115 3116 3120 3123 3125 3126 3130 3133 3135 3139 3142 3144 3146 3148 3151 3154 3157 3160 3163 3165 3168 3170 3173 3176 3178 3180 3182 3185 3186 3188 3190 3185
3093 3091 3088 3095 3097 3097 3098 3106 3111 3110 3106 3103 3106 3108 3120 3118 3114 3113 3114 3118 3123 3124 3125 3128 3132 3135 3138 3142 3145 3147 3149 3152 3155 3158 3161 3164 3166 3169 3171 3174 3177 3179 3181 3183 3185 3186 3187 3186 3187
3087 3079 3088 3089 3094 3096 3095 3099 3107 3104 3103 3099 3104 3108 3113 3117 3113 3111 3113 3116 3122 3124 3125 3127 3131 3134 3138 3142 3145 3147 3150 3152 3155 3158 3161 3164 3167 3169 3172 3174 3177 3179 3181 3182 3183 3185 3186 3187 3189
3080 3080 3084 3086 3089 3090 3091 3096 3101 3100 3101 3097 3100 3106 3110 3111 3111 3111 3112 3114 3120 3123 3125 3127 3130 3133 3137 3141 3144 3148 3150 3152 3155 3159 3162 3164 3167 3170 3172 3175 3177 3179 3181 3182 3183 3185 3186 3188 3189
3073 3077 3081 3083 3085 3084 3088 3089 3096 3100 3098 3095 3098 3101 3105 3106 3108 3110 3111 3112 3116 3121 3124 3127 3128 3132 3136 3140 3144 3147 3150 3153 3156 3159 3162 3165 3168 3170 3172 3175 3177 3179 3180 3181 3183 3184 3185 3186 3187
3073 3076 3076 3079 3080 3081 3084 3083 3089 3097 3092 3094 3093 3097 3101 3103 3105 3106 3109 3111 3112 3119 3123 3126 3127 3133 3135 3139 3143 3146 3150 3153 3157 3160 3164 3166 3168 3170 3172 3173 3175 3177 3179 3181 3181 3183 3183 3184 3187
3069 3071 3072 3070 3074 3075 3081 3078 3079 3088 3088 3089 3091 3095 3098 3101 3102 3103 3106 3111 3112 3116 3121 3125 3127 3130 3134 3138 3141 3145 3148 3152 3156 3159 3162 3165 3168 3171 3172 3172 3173 3175 3176 3179 3181 3184 3185 3184 3185
3062 3064 3060 3055 3067 3068 3076 3069 3074 3082 3083 3083 3087 3092 3094 3098 3101 3101 3103 3107 3113 3114 3119 3123 3126 3129 3132 3137 3141 3143 3147 3151 3154 3157 3160 3162 3165 3166 3168 3170 3174 3177 3178 3179 3181 3183 3183 3183 3182
3051 3045 3046 3054 3057 3063 3067 3065 3068 3075 3079 3080 3082 3086 3089 3094 3097 3100 3100 3103 3109 3114 3116 3121 3123 3128 3131 3134 3139 3143 3146 3150 3153 3156 3158 3160 3162 3165 3166 3170 3173 3175 3177 3179 3180 3180 3180 3181 3181
3033 3040 3043 3044 3047 3056 3059 3059 3063 3068 3074 3076 3076 3080 3084 3088 3093 3095 3096 3100 3103 3111 3114 3119 3122 3125 3129 3133 3137 3140 3144 3147 3151 3155 3157 3159 3162 3164 3166 3169 3172 3174 3175 3176 3176 3178 3178 3178 3179
3033 3038 3038 3038 3045 3051 3051 3053 3056 3062 3066 3070 3070 3074 3077 3082 3089 3091 3093 3096 3099 3105 3110 3114 3120 3122 3125 3129 3133 3137 3141 3144 3148 3152 3155 3157 3160 3161 3164 3168 3169 3172 3173 3175 3175 3174 3176 3176 3177
3028 3031 3031 3036 3040 3044 3043 3044 3048 3054 3056 3061 3065 3067 3071 3078 3081 3085 3088 3092 3092 3099 3105 3109 3114 3120 3122 3126 3130 3135 3139 3142 3145 3148 3152 3155 3159 3159 3164 3165 3167 3168 3171 3172 3172 3173 3173 3174 3173
3020 3022 3024 3028 3033 3036 3037 3037 3040 3044 3049 3054 3058 3060 3064 3068 3073 3077 3082 3085 3085 3090 3098 3103 3108 3114 3117 3122 3125 3130 3134 3137 3139 3142 3147 3152 3156 3157 3161 3163 3164 3166 3168 3169 3170 3170 3170 3171 3170
3014 3015 3021 3024 3029 3028 3028 3028 3027 3034 3039 3045 3048 3054 3056 3060 3066 3070 3074 3077 3078 3085 3091 3098 3102 3105 3110 3114 3117 3121 3126 3129 3133 3139 3144 3148 3152 3154 3157 3160 3161 3163 3165 3166 3167 3167 3167 3168 3167
3002 3015 3019 3020 3020 3023 3020 3021 3019 3027 3032 3036 3039 3044 3046 3052 3057 3062 3068 3072 3072 3080 3087 3090 3096 3100 3106 3111 3115 3117 3119 3122 3129 3135 3140 3143 3147 3149 3152 3156 3158 3159 3161 3163 3163 3163 3163 3163 3163
3002 3010 3012 3014 3014 3015 3013 3017 3013 3016 3021 3028 3033 3036 3039 3045 3050 3056 3063 3067 3068 3072 3081 3085 3090 3096 3100 3105 3111 3114 3117 3118 3120 3126 3133 3138 3143 3146 3149 3151 3153 3155 3157 3159 3160 3160 3160 3160 3159
2999 3003 3005 3008 3005 3005 3006 3010 3010 3015 3019 3023 3026 3028 3033 3035 3044 3047 3053 3059 3066 3067 3076 3081 3084 3090 3093 3099 3101 3108 3113 3117 3120 3121 3126 3131 3136 3140 3143 3146 3149 3151 3153 3155 3157 3157 3157 3156 3155
2988 2993 2995 3002 3003 2999 2994 2998 3006 3014 3014 3017 3019 3023 3026 3030 3034 3039 3045 3053 3063 3067 3070 3073 3078 3083 3088 3092 3097 3102 3108 3112 3115 3119 3121 3124 3129 3134 3137 3141 3144 3146 3147 3149 3152 3153 3152 3151 3150
2980 2983 2988 2993 2993 2993 2992 2995 3004 3008 3009 3013 3013 3012 3017 3024 3027 3032 3039 3048 3050 3059 3063 3066 3073 3079 3085 3088 3090 3095 3101 3104 3108 3112 3117 3119 3123 3127 3131 3135 3138 3141 3143 3144 3146 3147 3148 3147 3147
2976 2980 2980 2983 2990 2992 2991 2993 2997 3002 3004 3008 3008 3003 3009 3014 3020 3025 3031 3037 3041 3048 3055 3061 3069 3075 3080 3085 3088 3091 3094 3098 3100 3103 3109 3113 3117 3121 3124 3128 3132 3136 3138 3139 3140 3141 3142 3142 3142
2978 2978 2979 2980 2983 2988 2996 2993 2996 2997 2999 3003 3005 3002 3004 3008 3014 3020 3026 3032 3039 3044 3050 3056 3060 3070 3074 3079 3081 3083 3087 3091 3093 3095 3100 3105 3109 3113 3117 3123 3125 3128 3128 3132 3133 3135 3136 3135 3134
2990 2990 2989 2989 2985 2986 2987 2991 2989 2994 2995 2997 2999 3000 3003 3003 3006 3012 3019 3025 3030 3036 3038 3038 3023 3052 3063 3068 3071 3073 3079 3084 3088 3089 3094 3098 3102 3106 3109 3116 3117 3120 3125 3126 3127 3128 3127 3127 3126
Wind_Speed
15 12 13 13 12 11 19 16 3 7 8 19 15 7 11 16 13 8 7 4 3 4 5 6 7 8 9 10 14 18 20 27 27 27 22 25 22 21 19 23 20 26 24 22 18 21 19 17 16
17 15 14 12 14 19 19 13 20 14 2 14 11 4 4 10 10 8 3 8 7 6 6 7 8 9 10 13 15 21 23 28 25 25 23 24 23 26 23 17 19 18 18 17 17 18 17 18 17
17 15 19 11 18 28 27 17 20 13 12 6 6 1 6 6 6 4 5 4 6 8 8 8 10 11 11 15 15 21 23 26 23 22 24 28 20 20 23 16 19 15 20 21 20 21 19 19 18
17 18 19 21 23 27 19 23 18 13 7 2 7 9 5 7 4 3 2 8 7 9 9 9 12 13 12 16 17 19 20 24 23 21 25 23 20 18 23 21 21 24 25 25 23 21 19 19 18
22 21 21 21 27 29 20 22 18 13 6 16 22 13 8 10 6 6 4 6 9 10 9 9 14 16 15 17 19 18 21 21 22 21 19 20 19 22 22 22 23 25 25 25 23 21 20 20 19
25 25 18 27 27 24 18 14 26 13 12 23 20 14 8 9 9 9 8 8 10 9 9 10 15 17 17 19 19 21 22 21 21 21 21 22 21 20 23 23 24 23 23 22 22 21 21 21 22
29 28 28 30 29 23 17 16 30 17 7 14 8 11 8 11 11 11 11 5 8 10 9 9 15 19 19 21 20 23 23 23 22 21 23 23 23 22 22 23 22 21 21 20 19 20 21 23 24
28 27 28 30 30 30 19 14 13 12 13 22 20 11 8 9 12 11 12 5 8 11 11 9 16 19 20 22 23 25 25 24 24 24 24 25 24 23 22 22 21 20 20 19 19 20 21 26 21
25 28 34 35 31 28 19 22 14 15 16 16 21 11 12 10 14 11 12 11 12 13 13 12 17 21 22 22 24 26 27 27 26 25 24 23 23 23 22 21 19 19 18 18 19 20 23 26 23
30 34 39 33 29 28 26 23 27 17 24 14 18 20 19 14 12 9 10 9 14 15 16 15 17 22 23 24 24 25 26 27 26 24 24 23 22 22 20 20 19 18 17 17 17 17 18 19 9
30 43 35 34 27 25 28 29 26 19 19 15 14 10 19 19 12 10 11 10 13 16 17 18 19 22 23 23 24 24 25 25 25 24 23 22 21 21 20 18 18 17 15 14 14 14 11 4 6
33 36 35 33 26 29 33 28 15 19 23 23 18 17 17 19 16 11 13 11 15 17 19 20 21 23 24 24 24 23 24 25 24 23 22 22 20 19 19 17 15 14 14 13 11 10 10 12 12
32 29 25 25 28 33 30 33 26 23 17 22 15 20 17 19 17 13 13 12 17 20 20 20 21 25 25 25 24 23 22 22 22 21 21 20 18 17 17 15 14 14 13 12 10 8 7 7 6
29 27 29 29 32 30 30 30 25 18 15 23 20 17 16 19 19 15 16 17 18 20 21 21 22 23 26 25 25 24 22 21 19 19 18 18 18 18 17 16 14 13 11 10 5 3 6 7 5
33 37 35 39 34 34 33 38 32 20 19 26 26 26 21 17 20 18 16 16 20 21 23 23 22 23 24 25 26 25 24 22 22 20 19 18 17 16 18 16 9 7 3 6 3 6 7 7 8
34 35 41 43 35 38 33 41 31 24 29 29 29 24 27 23 20 24 20 18 20 25 25 24 24 25 24 23 23 25 25 24 22 21 20 20 20 16 14 18 16 15 15 8 7 7 7 9 9
38 45 45 40 39 32 31 41 37 26 33 30 32 28 28 27 26 29 28 22 18 24 26 26 26 25 24 23 21 22 22 23 22 20 18 16 15 13 13 12 13 11 11 10 11 9 8 5 9
42 41 41 38 43 37 34 36 42 33 31 38 34 34 31 29 28 33 34 29 23 21 26 26 28 28 26 24 24 24 22 20 19 21 19 17 17 18 20 12 17 13 12 12 9 9 6 9 11
38 38 35 46 34 31 39 38 35 37 37 35 40 40 36 30 27 35 40 34 33 27 25 29 30 30 29 29 28 26 25 23 21 21 20 19 16 18 15 11 14 13 12 12 11 8 9 12 12
38 40 40 36 32 33 37 41 43 39 41 41 39 43 42 34 31 35 41 40 38 32 28 29 29 30 30 30 29 26 25 24 22 21 23 22 19 19 14 14 15 14 10 9 9 10 12 13 13
44 43 45 40 36 34 36 39 44 41 42 43 40 37 49 46 38 33 38 43 44 37 35 28 28 30 32 32 32 29 27 27 27 25 22 22 20 20 15 15 14 11 8 9 10 11 12 12 15
38 44 43 39 35 29 32 21 43 46 39 38 40 41 40 51 42 36 35 44 50 43 43 37 31 32 36 35 35 33 33 32 29 23 21 22 21 19 16 15 14 11 10 10 12 13 13 13 14
47 37 39 40 43 37 40 21 31 38 37 36 45 40 36 50 44 40 36 38 47 46 45 43 37 35 37 37 36 35 35 33 27 25 24 23 22 20 18 16 15 14 13 13 14 14 15 13 14
41 37 36 38 43 23 36 25 24 38 38 38 38 43 36 47 47 46 39 33 42 46 46 46 42 37 38 39 38 38 38 36 32 29 25 24 22 20 18 18 17 16 15 15 15 17 17 16 15
36 39 19 18 19 12 37 25 20 32 33 25 39 38 42 43 47 49 41 37 38 50 47 44 41 41 43 46 43 41 40 36 33 31 27 25 23 21 21 21 19 18 17 15 15 17 18 18 17
29 36 22 8 5 15 37 11 23 22 24 18 25 40 43 41 47 48 44 38 36 41 43 47 44 41 43 46 44 41 39 35 33 32 29 25 22 21 22 21 21 22 20 19 18 18 19 19 18
27 34 34 26 22 4 15 30 31 21 31 26 26 43 46 45 50 49 41 36 44 46 49 49 47 40 43 45 44 42 42 38 35 34 28 26 22 17 16 18 21 24 20 19 16 19 21 23 22
4 14 17 23 5 5 7 22 22 25 30 34 32 35 37 45 50 45 33 34 35 46 50 37 44 43 42 42 44 42 42 40 39 39 35 37 19 16 18 19 19 19 17 21 24 25 31 27 26
22 12 7 10 7 4 3 9 8 35 37 39 34 29 38 42 39 44 40 39 44 35 54 40 53 47 47 49 49 43 42 41 41 40 34 24 22 21 22 29 26 22 18 26 25 23 26 31 37
12 28 23 9 9 9 22 13 15 26 32 38 38 34 34 39 38 36 39 37 31 28 24 36 35 45 44 53 52 45 44 42 40 40 36 28 28 28 25 35 28 31 31 26 25 24 24 31 36
Wind_Direction
261 265 267 268 265 257 259 265 247 249 181 274 264 198 171 175 188 228 153 119 122 185 190 188 174 154 150 146 126 115 127 133 135 136 143 139 139 159 147 135 139 128 116 112 114 114 118 121 121
247 248 254 254 254 256 267 292 232 272 229 260 284 159 215 217 222 241 113 171 192 196 194 184 176 155 150 148 135 121 125 130 134 142 150 144 136 137 123 111 124 147 141 132 123 115 122 122 123
240 237 245 246 251 250 263 264 271 227 274 215 282 174 225 248 227 263 152 180 195 196 189 180 173 154 148 148 142 126 133 134 140 135 135 146 131 136 149 129 126 135 145 140 134 128 128 129 125
224 226 235 233 240 257 266 284 282 253 334 267 207 226 228 225 249 257 160 205 204 199 183 174 169 152 146 148 145 132 135 137 144 141 131 136 139 142 143 135 131 118 124 130 127 127 129 123 120
215 219 232 245 252 262 261 270 248 235 150 171 200 182 201 222 235 267 268 206 218 204 175 170 167 152 146 147 144 133 140 136 139 136 137 140 143 133 137 129 125 122 125 127 127 129 129 123 114
209 215 222 241 252 259 257 257 283 250 257 256 199 186 196 231 240 262 280 177 210 198 164 168 168 156 152 150 145 136 136 136 139 139 139 141 140 139 134 129 125 124 124 126 129 129 124 120 112
216 212 233 246 253 254 226 260 279 238 260 158 206 215 198 209 218 276 284 199 204 194 163 167 170 159 156 154 152 144 141 144 146 140 136 135 136 135 130 127 124 125 125 124 125 125 127 124 126
226 223 231 239 250 256 225 283 214 244 252 234 260 190 215 192 227 265 269 211 201 200 165 170 170 162 160 155 150 148 146 146 145 141 137 136 134 134 132 131 130 129 129 127 127 125 125 131 146
220 228 239 232 233 241 234 274 232 275 223 201 183 237 265 265 242 254 256 201 203 201 174 171 173 165 162 160 152 148 146 145 144 142 138 136 135 134 133 132 132 131 130 129 129 130 128 139 171
202 226 235 234 227 236 251 267 295 259 242 229 240 274 240 252 256 269 252 209 204 203 184 169 175 167 166 164 157 152 149 147 145 144 141 139 138 136 135 136 136 136 138 139 141 143 144 158 176
223 226 232 242 234 233 252 267 303 216 236 246 260 227 217 231 252 257 240 203 207 201 195 171 174 170 169 167 163 159 154 152 149 149 146 143 142 141 138 139 140 144 144 149 152 153 148 130 132
233 234 233 240 228 241 253 259 291 235 234 239 243 250 252 239 238 251 248 201 199 200 198 177 174 170 173 170 167 165 161 160 157 153 149 149 147 147 144 146 147 152 160 169 164 139 139 147 184
241 244 241 248 244 241 253 253 256 250 232 231 225 233 245 241 219 231 232 194 198 196 199 182 175 173 175 175 170 168 168 167 161 159 157 156 153 155 150 156 159 166 176 170 142 139 176 189 208
242 244 248 249 249 252 259 258 242 239 226 233 217 220 236 236 221 223 235 195 207 198 197 189 174 179 177 178 173 170 171 170 164 165 169 163 166 160 169 161 172 168 153 141 194 93 187 193 196
239 251 250 245 244 245 250 256 252 242 229 234 223 238 239 231 221 222 237 223 199 208 197 192 183 178 182 183 174 174 175 173 172 173 172 170 174 165 181 173 129 172 203 192 174 149 169 222 224
243 244 249 233 240 241 242 250 244 233 235 220 223 243 237 231 229 213 225 228 199 204 208 191 194 180 187 184 180 177 176 177 177 178 177 176 187 175 176 176 165 197 223 194 193 208 211 226 262
235 241 237 245 233 238 234 244 238 227 225 217 230 235 244 228 224 213 215 220 219 199 215 196 199 192 190 184 187 185 181 179 181 183 189 191 186 183 195 194 193 207 205 197 211 228 252 289 286
227 235 240 242 236 233 241 241 236 229 225 226 230 229 236 229 225 212 211 219 214 216 206 213 203 196 196 193 189 191 188 191 186 183 194 196 180 205 201 201 216 207 202 211 239 256 278 294 307
232 230 242 238 234 241 238 236 235 227 229 222 233 223 226 242 231 218 212 215 214 213 208 213 209 204 200 196 199 198 196 195 197 193 197 205 197 206 211 200 206 205 208 223 246 280 288 293 304
228 228 237 242 240 234 236 230 231 224 228 220 228 225 226 236 224 221 215 209 217 211 212 206 212 211 211 203 205 202 204 205 207 199 200 206 197 215 204 199 208 215 211 242 264 276 286 294 298
229 227 236 242 238 245 238 243 234 224 225 226 228 236 229 231 222 225 222 211 215 219 223 207 208 210 220 210 208 203 202 208 210 210 202 201 201 212 205 209 220 228 229 241 264 278 289 294 298
230 227 232 248 251 256 249 240 227 217 219 223 229 230 234 226 222 231 235 221 215 219 224 222 205 209 217 215 215 210 209 213 217 211 203 202 202 211 215 210 223 231 238 256 268 280 291 295 294
234 232 237 245 251 256 262 239 198 206 212 223 227 228 231 223 218 229 234 231 227 223 221 226 217 212 215 215 218 219 212 214 215 209 204 207 206 211 218 221 225 238 243 251 264 275 284 287 287
232 241 244 245 246 248 252 240 215 210 215 227 227 228 235 220 226 231 232 237 229 228 222 227 225 216 210 218 218 222 222 215 208 205 207 212 214 222 229 230 231 239 251 259 267 276 282 287 288
236 232 237 245 243 239 244 233 219 225 233 229 230 226 228 220 221 220 220 225 227 224 223 226 225 214 208 213 212 220 227 225 221 209 204 207 217 224 231 238 241 246 253 257 265 273 277 284 288
247 240 218 218 202 231 236 214 232 236 226 247 233 223 225 218 214 223 221 223 224 230 233 227 224 215 214 214 214 214 222 221 225 222 208 200 210 221 229 233 239 244 249 260 269 277 279 277 277
252 245 229 236 246 240 213 245 249 254 245 245 227 213 217 218 209 216 225 234 225 234 228 226 226 221 214 211 210 211 216 217 219 221 212 193 198 207 224 228 236 248 257 264 281 288 276 275 278
332 241 233 230 191 220 239 211 222 218 219 216 202 194 194 199 197 209 208 223 224 224 217 233 232 226 215 211 213 211 213 215 217 219 215 218 213 219 222 236 242 247 262 273 276 292 284 274 272
4 17 330 304 247 210 255 250 257 218 222 211 198 186 189 197 199 203 208 219 217 234 222 219 232 228 225 219 220 218 215 214 220 222 220 217 217 215 231 249 235 244 270 260 268 269 286 281 272
26 26 27 13 315 307 220 249 288 206 201 208 197 194 197 199 202 204 212 227 235 237 242 261 208 207 228 231 229 216 214 212 217 224 226 221 224 223 244 246 247 247 264 266 279 274 284 280 275